Terminal Aerodrome Forecast
Issued by NWS

Home | Current Version | Previous Version | Text Only | Print | Product List | Glossary On
Versions: 1 2 3 4 5 6 7 8 9 10 11 12 13 14 15 16 17 18 19 20 21 22 23 24 25 26 27 28 29 30 31 32 33 34 35 36 37 38 39 40 41 42 43 44 45 46 47 48 49 50
000
FTUS43 KDLH 281700 RRA
TAFHYR
TAF
KHYR 281743Z 2818/2918 21013KT P6SM SCT120
     FM290600 19008KT P6SM -SHRA SCT060 WS020/20035KT
     FM291000 19008KT 4SM -SHRA BR OVC020
     FM291600 VRB05KT P6SM BKN030=

USA.gov is the U.S. government's official web portal to all federal, state and local government web resources and services.